Location: Bismarck
(46.7731°N, 100.8200°W)
Time: 01:07:58
(UTC-05:00)

ISS - All Passes

Search period start: 18 June 2018 00:00
Search period end: 28 June 2018 00:00
Orbit: 402 x 406 km, 51.6° (Epoch: 18 June)

Date Brightness Start Highest point End Pass type
(mag) Time Alt. Az. Time Alt. Az. Time Alt. Az.
18 Jun - 11:29:55 10° SSW 11:32:57 34° SE 11:35:59 10° ENE daylight
18 Jun - 13:06:07 10° W 13:09:21 52° NNW 13:12:35 10° ENE daylight
18 Jun - 14:43:13 10° WNW 14:46:15 33° N 14:49:17 10° ENE daylight
18 Jun - 16:19:50 10° WNW 16:23:06 64° NNE 16:26:22 10° ESE daylight
18 Jun - 17:56:37 10° W 17:59:23 25° SW 18:02:09 10° SSE daylight
19 Jun - 10:38:18 10° S 10:40:50 21° SE 10:43:22 10° E daylight
19 Jun - 12:13:45 10° WSW 12:17:02 75° NNW 12:20:20 10° ENE daylight
19 Jun - 13:50:47 10° WNW 13:53:50 34° N 13:56:53 10° ENE daylight
19 Jun - 15:27:34 10° WNW 15:30:46 46° NNE 15:33:57 10° E daylight
19 Jun - 17:04:07 10° WNW 17:07:15 43° SW 17:10:22 10° SE daylight
20 Jun - 09:47:26 10° SSE 09:48:47 12° SE 09:50:09 10° ESE daylight
20 Jun - 11:21:29 10° SW 11:24:45 71° SSE 11:28:02 10° ENE daylight
20 Jun - 12:58:18 10° W 13:01:25 38° N 13:04:32 10° ENE daylight
20 Jun - 14:35:15 10° WNW 14:38:22 37° N 14:41:28 10° E daylight
20 Jun - 16:11:45 10° WNW 16:15:02 72° SSW 16:18:18 10° SE daylight
20 Jun - 17:49:33 10° WSW 17:51:00 12° SW 17:52:26 10° SSW daylight
21 Jun - 10:29:24 10° SW 10:32:32 41° SE 10:35:40 10° ENE daylight
21 Jun - 12:05:48 10° W 12:09:00 47° NNW 12:12:13 10° ENE daylight
21 Jun - 13:42:53 10° WNW 13:45:56 34° N 13:48:58 10° ENE daylight
21 Jun - 15:19:27 10° WNW 15:22:45 73° NNE 15:26:00 10° ESE daylight
21 Jun - 16:56:23 10° W 16:58:56 21° SW 17:01:29 10° S daylight
22 Jun - 09:37:37 10° SSW 09:40:21 25° SE 09:43:07 10° E daylight
22 Jun - 11:13:21 10° WSW 11:16:38 65° NNW 11:19:54 10° ENE daylight
22 Jun - 12:50:26 10° WNW 12:53:28 33° N 12:56:31 10° ENE daylight
22 Jun - 14:27:09 10° WNW 14:30:22 51° NNE 14:33:35 10° E daylight
22 Jun - 16:03:45 10° WNW 16:06:47 35° SW 16:09:49 10° SSE daylight
23 Jun - 08:46:20 10° S 08:48:15 15° SE 08:50:10 10° E daylight
23 Jun - 10:21:00 10° WSW 10:24:17 83° SSE 10:27:36 10° ENE daylight
23 Jun - 11:57:55 10° WNW 12:01:00 36° N 12:04:05 10° ENE daylight
23 Jun - 13:34:49 10° WNW 13:37:57 40° NNE 13:41:05 10° E daylight
23 Jun - 15:11:18 10° WNW 15:14:33 60° SSW 15:17:47 10° SE daylight
23 Jun - 16:50:15 10° SW 16:50:26 10° SW 16:50:38 10° SW daylight
24 Jun - 09:28:49 10° SW 09:32:00 50° SSE 09:35:13 10° ENE daylight
24 Jun - 11:05:23 10° W 11:08:32 43° NNW 11:11:43 10° ENE daylight
24 Jun - 12:42:25 10° WNW 12:45:29 35° N 12:48:32 10° ENE daylight
24 Jun - 14:18:57 10° WNW 14:22:15 84° NNE 14:25:32 10° ESE daylight
24 Jun - 15:56:04 10° W 15:58:22 18° SW 16:00:38 10° S daylight
25 Jun - 08:36:52 10° SSW 08:39:46 29° SE 08:42:42 10° E daylight
25 Jun - 10:12:52 10° W 10:16:07 57° NNW 10:19:22 10° ENE daylight
25 Jun - 11:49:57 10° WNW 11:52:59 33° N 11:56:01 10° ENE daylight
25 Jun - 13:26:36 10° WNW 13:29:52 57° NNE 13:33:06 10° E daylight
25 Jun - 15:03:17 10° W 15:06:12 29° SW 15:09:06 10° SSE daylight
26 Jun - 07:45:19 10° S 07:47:36 18° SE 07:49:53 10° E daylight
26 Jun - 09:20:25 10° WSW 09:23:43 84° NNW 09:27:02 10° ENE daylight
26 Jun - 10:57:25 10° WNW 11:00:29 35° N 11:03:33 10° ENE daylight
26 Jun - 12:34:15 10° WNW 12:37:25 43° NNE 12:40:35 10° E daylight
26 Jun - 14:10:45 10° WNW 14:13:57 50° SSW 14:17:08 10° SE daylight
27 Jun - 06:55:23 10° SE 06:55:29 10° SE 06:55:37 10° SE daylight
27 Jun - 08:28:08 10° SW 08:31:23 60° SSE 08:34:38 10° ENE daylight
27 Jun - 10:04:50 10° W 10:07:58 40° NNW 10:11:07 10° ENE daylight
27 Jun - 11:41:50 10° WNW 11:44:55 36° N 11:48:00 10° ENE daylight
27 Jun - 13:18:19 10° WNW 13:21:38 84° SSW 13:24:54 10° ESE daylight
27 Jun - 14:55:45 10° W 14:57:40 15° SW 14:59:35 10° S daylight
